Theta_e
338 340 343 347 347 348 348 348 348 347 346 345 344 345 344 343 342 342 342 342 342 342 343 343 343 344 342 343 343 343 343 344 343 344 344 345 345 345 344 344 345 347 347 347 347 348 348 347 346 344 343 341 341 341 341 342 343 342 341 341 342 342 343 341 337 337 338 339 339 339 338 338 338 338 338 337 336 336 336 335 333 329 331 335 338
338 340 342 345 347 347 348 347 347 347 346 346 344 342 341 341 341 341 341 341 342 342 342 342 343 343 344 347 347 347 346 346 346 345 344 344 343 345 345 344 344 346 347 347 347 347 347 345 344 343 342 341 340 340 340 341 341 340 340 340 340 340 341 342 337 336 337 337 338 339 338 337 337 337 338 338 336 338 336 336 336 331 332 336 336
340 342 343 345 347 347 347 347 346 346 346 345 343 342 341 341 341 341 342 341 341 341 341 341 342 342 342 346 346 347 346 345 345 345 346 346 346 346 347 348 347 348 347 346 346 346 345 345 344 342 341 341 341 340 340 340 339 339 339 340 341 341 342 340 337 336 336 336 336 335 336 337 336 336 337 337 336 336 337 336 336 335 331 335 334
340 342 343 345 346 347 346 347 345 345 344 344 343 342 342 341 341 342 342 342 342 341 340 341 342 341 344 346 346 346 345 345 344 343 344 345 347 346 346 345 346 346 347 346 346 345 344 344 343 343 341 339 340 339 338 339 338 339 339 340 340 342 342 338 337 335 334 334 334 332 331 327 331 335 338 336 337 336 336 335 334 335 335 334 334
341 342 342 343 344 346 347 346 345 344 343 342 341 341 340 340 342 342 342 342 342 342 342 341 340 340 343 344 344 344 344 344 343 342 342 345 347 347 347 346 346 347 346 346 345 344 343 342 342 342 341 341 340 338 337 338 338 339 340 340 341 341 339 339 337 336 335 334 333 331 325 326 327 337 338 336 335 334 335 336 333 333 333 333 333
340 341 342 342 342 344 346 346 345 345 343 342 341 341 341 339 341 340 340 340 340 339 343 342 342 341 340 341 344 345 345 344 345 345 345 343 344 345 345 346 346 346 345 345 345 345 343 342 341 342 340 340 339 337 336 338 339 339 340 340 340 340 338 338 336 335 335 334 332 326 325 325 326 330 339 338 335 334 335 336 335 333 335 336 335
341 341 341 341 341 342 345 346 345 344 343 342 342 342 341 340 339 339 342 341 340 341 342 342 342 341 340 342 343 344 344 343 346 346 347 347 346 346 345 345 346 345 345 345 344 344 343 342 341 340 340 338 338 337 336 337 339 340 340 340 341 339 338 337 336 334 332 328 324 324 324 325 326 328 335 337 336 335 334 336 337 336 334 335 334
341 341 341 340 339 343 344 346 345 343 343 342 343 343 342 341 340 340 340 339 340 339 339 339 339 339 339 341 344 344 343 344 346 346 347 346 345 345 344 344 344 343 343 343 344 343 342 341 340 339 339 338 337 336 337 338 339 339 340 341 341 338 337 335 334 333 332 326 324 324 324 324 325 327 334 334 333 333 333 333 333 335 335 335 333
339 340 340 340 339 342 344 344 344 343 343 342 343 345 343 341 340 339 339 339 339 337 337 339 339 338 338 339 340 341 342 343 345 345 346 346 345 344 344 344 342 342 342 342 343 343 342 340 339 338 338 338 337 336 337 337 338 339 339 340 340 339 336 334 332 330 326 325 325 325 325 325 325 325 332 333 334 334 333 332 333 333 333 333 331
339 340 340 339 339 340 343 343 344 342 342 344 344 345 343 342 341 340 339 336 336 342 342 341 341 339 339 339 340 340 342 342 345 345 344 344 344 343 342 342 342 341 341 341 341 342 341 339 338 337 337 337 337 336 336 337 337 338 338 339 339 339 336 333 331 328 324 324 324 325 329 332 324 327 331 333 334 333 334 334 333 333 332 332 332
339 339 339 339 338 340 344 345 344 343 342 344 343 344 344 342 340 338 337 338 337 342 342 342 341 341 341 341 341 342 342 342 343 344 344 344 343 344 343 343 341 341 341 341 341 342 340 339 337 337 337 336 336 335 335 336 336 337 337 337 338 338 335 333 329 323 324 324 324 324 328 332 324 326 333 333 336 335 335 335 333 332 331 331 333
338 339 339 338 344 340 343 343 343 343 343 343 343 343 342 342 340 339 339 340 341 342 342 342 342 342 342 342 342 342 342 342 342 342 343 342 342 343 342 342 341 341 340 340 340 340 340 339 337 337 336 336 335 335 335 335 335 336 336 336 337 337 336 331 325 323 323 324 325 326 325 324 325 330 333 333 332 334 334 334 333 333 333 332 332
337 338 338 338 338 340 341 343 342 343 343 343 343 342 342 341 341 340 340 343 343 342 341 342 342 342 342 341 341 341 343 343 343 343 342 342 342 342 341 341 341 340 340 340 340 339 339 338 337 336 336 335 334 334 334 334 334 335 335 335 336 335 333 330 323 322 322 324 327 327 327 328 326 332 333 334 333 332 332 333 334 332 332 332 332
335 336 336 338 338 344 338 340 341 343 344 344 343 342 341 341 341 340 342 342 342 342 342 342 342 342 341 340 340 340 342 343 342 341 341 341 341 341 340 340 340 339 340 339 339 339 339 338 337 336 335 334 334 334 333 333 334 334 334 334 334 335 330 328 327 323 324 324 325 325 325 329 329 334 333 334 335 335 332 332 332 332 331 331 331
332 333 335 338 338 338 341 338 340 340 342 343 342 342 341 341 341 340 341 342 342 342 342 340 340 340 339 338 339 339 339 340 341 341 341 341 340 341 341 340 340 340 340 339 339 338 337 337 337 336 335 334 333 333 333 333 333 333 333 334 334 331 328 324 323 323 325 324 322 324 324 328 336 336 334 333 333 334 333 333 333 333 332 332 331
332 334 336 336 337 337 338 341 337 337 339 340 341 342 342 343 342 340 339 339 340 340 339 338 338 339 339 339 341 341 341 341 343 342 342 341 341 340 340 340 340 339 338 338 338 337 337 337 336 336 335 334 333 333 332 332 333 333 333 334 331 329 326 324 321 321 321 321 321 323 324 327 337 337 336 335 334 333 332 332 333 332 332 332 331
333 333 334 334 335 335 337 338 336 334 334 335 338 340 342 343 342 341 340 341 340 340 338 338 342 342 342 341 341 341 340 340 340 341 341 340 340 340 339 338 338 338 338 338 338 337 337 337 336 335 335 334 333 332 332 332 333 333 333 332 330 328 325 323 322 321 321 322 322 323 326 328 335 336 336 335 334 333 332 331 331 331 332 332 332
331 331 332 335 334 334 336 335 335 334 332 332 333 338 340 342 341 340 340 340 341 340 341 342 341 340 340 340 339 339 339 339 339 339 338 340 338 337 339 338 338 338 337 337 337 337 336 336 336 335 334 333 333 332 332 332 333 333 332 330 329 326 324 323 320 320 322 324 321 323 325 334 335 336 336 336 335 333 332 334 335 335 334 334 334
328 329 333 334 334 334 335 335 334 333 332 331 333 335 335 338 339 339 339 339 340 339 339 337 337 338 337 335 335 334 333 334 334 336 336 335 336 334 336 337 337 337 336 336 337 336 336 335 335 334 334 333 332 332 331 331 331 330 330 328 326 322 321 322 320 321 319 319 321 320 324 334 334 335 336 335 335 336 335 335 335 334 334 334 335
326 328 330 332 334 334 334 335 335 334 331 330 331 333 333 333 335 336 336 337 337 336 335 334 332 331 331 331 329 328 328 328 328 329 331 333 333 329 332 336 336 336 336 336 335 335 335 335 334 334 333 333 332 332 332 331 331 331 330 327 323 319 319 319 319 320 320 320 320 320 330 333 334 335 335 336 335 335 334 335 335 334 334 334 335
327 328 328 329 333 333 334 334 335 335 332 331 330 331 333 331 331 331 332 333 333 333 332 327 325 324 325 324 326 327 326 326 326 325 325 326 325 327 331 335 336 335 335 335 334 334 333 333 333 333 332 332 331 331 329 331 332 329 323 320 316 317 320 322 322 321 319 319 320 322 332 332 332 334 335 335 336 336 335 335 334 335 334 335 335
323 327 328 328 331 333 333 333 333 335 333 332 331 331 331 331 331 330 329 330 328 327 327 328 330 325 323 325 326 327 326 326 327 330 324 324 323 325 329 334 335 334 335 334 333 333 332 332 331 331 331 331 327 318 318 322 326 328 324 319 316 317 318 322 322 321 321 319 319 326 332 331 332 334 333 334 335 335 334 334 335 335 334 334 334
321 323 325 327 328 332 332 331 331 336 334 332 331 330 330 330 330 330 329 327 329 328 328 328 326 325 324 325 325 326 326 326 326 327 325 321 323 325 329 331 333 332 335 334 333 333 333 331 331 331 330 328 318 315 317 318 317 320 319 318 318 318 318 319 320 320 319 318 319 329 332 331 331 333 333 333 334 333 333 334 334 334 334 334 334
322 323 324 327 327 328 329 329 330 334 334 332 330 329 329 330 330 329 328 328 327 328 328 328 327 326 326 325 325 324 325 326 329 330 327 322 320 321 324 325 327 329 330 330 331 332 332 331 330 330 328 322 319 317 317 319 322 321 317 318 318 318 319 318 319 321 320 320 320 329 331 330 331 332 333 333 334 333 333 334 333 334 334 334 333
323 323 323 326 326 326 327 328 330 332 334 332 329 329 329 329 329 329 329 328 327 328 328 328 328 327 326 326 325 323 326 325 326 324 322 322 320 319 319 321 321 323 323 323 323 323 323 320 320 320 316 317 317 318 319 320 319 320 321 320 319 319 321 320 320 319 320 318 319 325 329 330 330 332 333 333 333 333 333 333 333 334 333 333 333
323 323 323 325 326 326 325 327 329 330 334 332 330 329 329 328 327 328 328 327 328 328 327 328 327 328 327 326 327 325 325 325 324 324 323 322 321 320 321 321 320 321 320 323 321 321 319 320 320 318 317 317 319 318 318 317 319 318 319 319 319 319 318 321 321 318 319 317 317 323 326 330 329 331 332 332 332 333 333 332 333 333 333 333 333
322 323 324 323 326 326 326 326 327 328 331 333 331 329 329 327 327 327 327 326 327 327 326 327 327 328 328 327 326 325 324 324 324 323 323 322 322 321 321 321 322 321 321 321 321 321 319 319 320 320 319 317 318 318 318 318 318 320 318 320 320 320 319 319 319 319 316 317 318 322 327 328 329 330 330 331 332 332 332 332 333 333 333 333 333
321 322 323 324 325 326 326 326 325 327 328 331 330 329 329 326 326 325 326 325 326 326 325 327 327 328 327 327 325 326 324 323 323 322 322 322 322 322 322 321 322 322 322 321 321 321 318 319 321 320 317 317 318 321 320 320 319 319 321 321 320 318 317 319 319 318 316 318 318 319 323 326 328 329 329 330 331 332 332 331 331 332 333 332 331
322 322 323 323 325 326 326 326 325 326 327 328 327 327 328 325 325 325 324 323 326 325 325 325 326 326 327 326 325 324 323 324 322 322 322 322 322 322 322 322 322 323 322 319 321 321 319 318 319 319 317 316 319 323 321 319 319 319 322 323 320 318 316 317 316 317 316 317 317 318 321 324 327 327 328 329 330 329 329 329 329 329 331 331 328
324 323 322 323 325 326 326 326 326 326 326 325 325 325 326 324 324 325 325 322 325 325 324 324 325 326 326 325 325 325 325 324 324 322 323 323 323 323 322 322 323 323 322 320 320 320 318 316 317 318 318 317 318 321 319 319 318 317 318 321 322 321 316 314 314 316 316 318 317 317 319 322 326 327 327 327 327 326 326 327 327 328 328 328 325
325 324 323 323 324 324 326 327 326 325 326 325 324 325 325 324 324 324 324 323 324 324 324 324 325 325 326 326 325 325 325 325 325 324 323 323 322 323 322 321 322 321 323 321 321 321 319 319 319 317 318 318 318 317 317 317 317 316 316 318 321 319 316 315 315 316 318 319 317 315 317 320 323 326 325 325 324 324 325 326 326 326 327 327 331
325 325 324 323 323 324 326 327 327 326 326 326 324 324 325 325 325 325 324 324 324 324 324 325 324 325 326 326 326 326 325 324 325 324 324 323 322 322 322 321 321 319 322 321 320 322 320 319 319 320 319 318 317 316 317 317 315 317 315 318 317 317 315 316 316 316 318 320 317 315 315 318 319 321 323 323 322 322 324 324 325 325 326 329 329
326 327 326 324 323 323 325 326 327 325 325 326 325 325 325 325 325 325 325 325 324 324 324 324 325 326 326 327 327 327 325 325 325 325 323 324 324 322 322 322 322 322 322 322 321 321 318 319 320 319 318 318 318 317 317 316 315 319 319 320 320 318 318 316 317 317 318 319 317 315 314 314 315 316 317 319 322 322 323 324 325 324 325 326 326
325 326 326 325 324 324 325 326 326 326 325 326 326 324 325 325 325 326 325 325 325 324 324 325 325 325 326 327 327 327 326 325 325 325 324 324 324 323 323 322 323 322 322 322 320 320 320 319 320 318 319 318 317 318 317 319 316 316 318 320 319 320 316 316 317 320 320 319 318 315 313 312 312 313 313 315 319 322 323 324 324 324 324 325 325
323 326 327 327 324 324 325 325 324 325 324 325 325 325 325 325 325 326 325 325 325 325 325 325 325 325 325 326 327 327 327 327 324 325 324 324 324 323 322 323 323 323 321 322 322 321 321 321 318 320 319 316 317 320 319 318 317 316 316 318 320 319 317 319 318 318 318 318 317 315 313 312 311 311 311 308 311 316 322 323 323 323 323 321 320
326 325 327 328 326 325 324 324 323 325 324 325 325 325 325 326 326 324 326 325 324 325 325 325 326 325 325 326 327 327 327 328 325 324 325 324 324 323 323 323 324 323 322 322 322 322 321 321 320 321 317 317 317 318 316 317 316 316 314 314 313 313 314 314 316 317 319 317 315 314 314 312 311 309 308 307 309 312 316 320 321 320 317 318 319
328 326 327 327 328 326 324 324 322 324 324 324 324 324 325 325 325 326 326 326 325 325 325 325 326 325 325 325 327 327 326 327 326 323 325 324 322 322 323 323 324 324 322 322 322 322 321 321 320 319 320 318 316 316 314 314 315 316 315 313 313 315 313 314 317 319 318 316 314 313 313 313 310 308 307 305 306 309 311 313 314 313 314 315 317
328 327 327 328 328 328 326 325 323 324 324 324 323 324 325 325 324 325 323 326 326 325 325 325 326 326 325 325 325 326 325 325 325 323 323 324 323 321 322 324 324 323 322 322 322 322 321 321 320 319 319 319 316 317 315 314 315 317 317 318 317 314 315 314 317 313 316 315 313 313 313 312 311 310 308 305 305 306 307 309 310 309 309 311 314
328 327 327 328 328 328 327 325 324 324 324 324 323 323 324 323 323 324 324 325 326 326 325 325 326 326 326 326 325 326 325 325 324 323 322 323 322 321 321 323 324 323 322 322 321 321 320 319 319 318 319 320 319 318 318 315 314 314 315 317 317 315 313 314 315 314 313 315 314 313 313 311 310 309 308 305 303 304 303 302 300 299 301 307 308
327 327 326 327 327 327 327 326 326 326 325 324 323 322 323 323 323 322 323 323 325 324 325 325 325 325 326 325 325 326 325 325 325 323 323 322 322 321 321 322 323 323 322 321 320 320 320 319 318 318 317 317 318 319 315 313 311 312 311 313 312 313 313 313 312 313 313 314 313 312 312 309 308 306 306 305 303 302 301 300 300 299 298 302 303
326 327 327 327 327 327 326 326 327 327 326 325 324 323 323 322 322 323 323 323 324 325 324 324 324 325 325 325 325 325 325 325 325 325 323 321 322 322 321 322 324 324 323 323 322 322 322 321 320 317 317 316 316 317 316 315 312 312 311 310 312 310 312 313 313 312 313 313 312 311 308 308 305 304 304 304 303 303 302 301 300 299 295 293 297
324 326 326 327 327 327 326 327 327 328 327 327 326 325 324 325 324 324 324 324 323 323 324 324 325 325 325 325 325 326 326 325 324 325 324 323 322 321 321 322 323 324 324 324 323 319 321 321 319 316 316 317 316 317 317 317 310 310 307 307 309 311 312 314 312 312 312 312 311 310 308 306 304 303 302 302 302 303 302 301 300 298 295 292 292
325 325 326 326 326 327 326 327 327 328 328 328 328 326 326 325 325 324 325 322 323 325 325 325 325 325 326 326 325 325 326 325 325 324 325 324 323 322 322 323 324 324 323 323 323 322 322 321 320 319 316 316 317 317 317 318 311 305 302 305 303 308 310 311 310 310 312 310 309 308 306 304 303 303 302 301 301 301 302 301 300 299 295 292 291
324 325 325 326 327 326 327 326 327 327 328 328 326 328 328 327 327 325 324 325 323 322 324 323 325 324 325 326 326 326 326 326 326 325 325 326 324 323 323 324 324 325 325 324 323 322 321 321 321 320 319 316 316 316 317 318 313 311 307 307 303 306 304 308 309 310 310 310 310 306 304 304 302 301 301 301 301 301 301 301 300 297 293 292 291
324 324 325 326 327 326 327 326 327 327 328 326 326 327 325 325 327 325 322 322 322 323 324 325 326 325 326 326 327 326 326 327 327 326 325 326 326 325 323 323 324 325 325 325 324 324 323 322 322 321 320 319 316 315 315 317 315 317 311 305 304 303 304 303 308 309 308 309 308 306 303 302 301 300 299 300 300 301 300 300 298 296 294 292 291
323 324 326 326 327 327 327 326 326 327 327 327 326 326 325 326 324 324 322 323 323 324 323 324 325 325 325 327 327 327 327 327 327 327 326 325 326 326 325 324 324 325 325 325 325 324 324 323 322 322 321 321 320 316 314 313 316 315 313 312 309 304 302 300 307 304 308 307 308 303 302 301 299 299 299 299 300 300 300 300 298 296 294 293 291
323 325 325 325 326 326 326 326 326 326 327 326 326 324 325 326 325 325 325 324 323 324 326 326 326 327 327 326 328 328 328 328 328 328 328 327 327 327 326 325 325 325 325 325 325 325 325 324 324 323 322 321 319 317 315 315 311 313 313 312 308 304 304 306 305 302 303 308 306 301 301 300 298 298 298 299 299 300 300 299 297 295 293 292 290
324 324 324 325 325 325 326 326 326 325 326 327 326 325 325 325 325 325 324 324 324 323 324 325 325 325 326 327 326 327 328 330 329 329 329 328 327 329 329 328 326 326 325 325 325 326 325 325 324 324 324 322 320 319 316 315 315 314 312 313 311 309 309 306 303 307 305 304 305 305 302 299 297 297 298 298 299 300 299 297 296 293 292 291 290
322 322 323 324 325 325 324 325 326 325 325 325 325 325 324 325 324 324 323 324 325 324 320 322 323 323 324 325 326 327 328 330 331 330 330 329 327 328 330 330 329 328 325 326 326 326 325 325 324 323 323 322 322 321 319 316 316 316 312 313 312 312 309 310 307 303 299 302 302 301 298 298 297 296 297 297 299 300 299 297 295 293 292 291 290
321 321 322 323 323 323 323 323 324 325 325 324 324 325 324 323 324 323 323 323 322 322 321 321 322 322 324 324 325 326 327 328 329 330 330 330 329 328 329 330 330 330 326 327 327 326 326 326 325 324 324 323 322 321 320 318 318 318 317 316 313 311 311 311 307 307 303 305 303 301 297 296 294 295 295 295 297 298 298 297 295 293 292 291 290
316 317 318 319 320 321 322 321 323 325 324 324 324 324 324 323 323 323 323 322 322 322 321 321 321 321 323 323 324 325 326 327 328 329 330 330 330 329 329 329 330 329 327 328 327 327 327 326 325 325 323 323 323 322 319 319 318 318 317 316 315 314 313 312 311 309 308 301 299 300 298 297 296 293 294 295 296 298 298 296 295 294 293 291 289
Wind_Speed
2 4 4 9 12 13 13 13 13 14 14 13 13 13 13 13 13 13 12 13 11 13 12 11 12 13 14 13 14 15 14 14 14 15 15 15 16 16 16 16 18 18 17 18 18 19 19 19 18 19 18 18 18 18 18 18 18 18 18 17 17 16 18 21 21 20 19 20 21 20 19 18 19 19 19 19 19 16 12 13 12 6 9 15 22
6 3 4 6 12 13 14 13 14 13 13 14 14 13 13 13 13 12 11 12 13 13 14 13 12 10 15 19 16 15 15 16 15 15 14 15 16 16 16 16 17 18 18 18 19 19 19 18 18 18 18 18 18 18 18 18 18 17 17 17 16 15 14 16 20 20 18 18 18 19 21 19 19 18 18 18 19 18 15 17 18 9 9 18 19
7 5 4 6 11 12 13 13 14 14 13 13 14 13 13 13 13 12 12 13 13 13 13 12 12 14 14 16 16 16 15 15 15 14 15 15 15 15 16 17 17 18 19 19 18 19 18 18 18 18 18 17 17 18 18 17 17 16 16 16 16 16 15 17 20 19 18 18 16 15 13 19 20 19 19 19 19 19 16 18 17 15 11 19 17
9 5 5 7 10 11 13 12 14 14 13 13 13 12 13 13 12 13 12 13 14 14 13 12 14 14 15 16 15 15 15 14 15 15 16 16 17 17 16 17 18 19 19 19 19 19 18 18 18 17 17 17 17 17 17 16 16 16 16 16 16 17 19 20 20 19 18 17 16 12 7 5 8 20 20 19 19 19 15 18 19 19 18 18 21
9 7 6 6 7 10 12 12 13 14 13 13 13 12 13 12 14 14 13 13 13 13 13 13 12 13 14 14 14 14 14 14 15 14 15 17 17 17 17 16 17 19 19 19 19 18 18 18 18 17 17 16 16 16 16 15 15 15 16 16 16 17 20 19 19 18 16 14 12 9 7 7 5 16 19 20 18 12 13 20 20 19 18 18 19
9 7 6 6 5 7 11 12 13 13 13 13 12 12 13 10 13 13 12 12 11 12 14 13 13 12 13 14 15 14 14 14 15 15 14 14 15 15 16 17 18 18 18 18 18 18 18 17 17 17 16 16 16 15 15 15 15 15 15 16 16 16 19 18 17 15 13 11 9 6 6 6 6 6 20 19 19 16 21 19 17 18 18 19 19
11 7 7 6 5 7 11 12 13 12 13 12 12 12 12 11 10 11 14 13 12 13 14 13 14 13 13 13 14 14 15 14 15 15 16 16 16 16 15 17 18 18 18 18 18 18 17 17 17 16 16 15 15 15 14 14 14 15 15 16 16 16 18 18 17 14 11 6 5 5 5 6 7 4 17 17 17 17 18 18 18 18 18 18 19
9 7 6 5 5 8 10 11 11 13 12 11 12 12 12 11 10 12 12 12 11 11 12 12 13 13 12 13 15 14 13 15 15 15 16 16 16 17 16 16 18 17 16 17 17 17 17 16 16 16 15 15 15 14 14 14 14 15 16 15 16 16 16 17 16 15 12 7 6 6 6 5 5 4 15 15 16 16 16 16 15 17 17 18 14
9 9 8 6 5 10 10 10 12 12 13 11 11 11 11 11 11 11 11 11 12 11 11 13 12 11 12 12 13 14 14 14 15 16 15 15 15 17 16 16 16 16 16 16 16 16 16 15 15 15 15 15 15 14 14 14 15 15 16 15 14 16 16 15 14 13 7 6 6 7 7 6 4 4 12 15 15 15 14 11 12 15 16 15 15
10 9 8 6 6 10 11 10 12 12 14 13 12 12 12 11 11 11 11 10 10 13 14 13 13 12 12 13 12 14 14 15 16 15 15 14 14 16 16 15 15 15 16 16 16 16 16 15 15 15 15 15 15 14 14 14 14 15 15 15 14 14 13 13 13 10 7 6 6 5 5 6 4 5 10 12 15 13 11 12 11 10 10 15 16
11 9 8 7 8 11 11 11 10 10 14 13 12 12 11 11 11 10 10 11 10 12 12 13 12 13 13 13 13 14 14 14 15 15 14 15 15 16 16 16 15 14 15 15 15 16 15 14 15 15 15 15 14 14 14 14 14 14 14 13 12 12 12 11 10 6 6 6 6 4 5 7 3 4 13 14 16 14 10 13 14 14 13 14 15
10 9 8 7 10 12 12 11 10 11 13 13 13 12 11 10 10 10 10 11 11 12 12 12 12 12 12 13 13 13 13 13 14 14 14 14 15 16 15 16 15 14 15 14 14 15 14 14 14 14 14 14 14 14 13 13 13 13 13 12 11 10 9 10 6 6 5 5 5 4 4 4 4 9 14 13 13 14 13 15 14 14 14 14 14
10 9 8 7 5 10 11 11 10 10 11 13 13 12 11 11 11 10 11 11 11 11 12 12 12 12 12 12 11 12 13 13 13 14 14 14 14 14 15 15 15 14 14 14 14 14 14 14 14 14 14 14 14 13 13 12 12 12 11 11 10 9 8 9 5 5 5 5 4 5 5 5 3 11 12 13 13 12 12 12 13 12 13 13 13
10 9 8 8 6 9 11 10 9 8 11 12 12 12 11 11 11 11 12 11 11 11 11 12 12 11 12 12 11 12 13 12 13 13 13 13 13 13 14 14 14 13 13 14 13 13 13 13 13 13 13 13 13 13 12 11 10 10 10 10 10 8 9 7 6 4 4 4 4 5 5 5 3 9 10 11 11 11 11 11 11 11 11 11 12
10 9 8 7 7 6 10 10 9 9 10 10 10 9 11 12 10 11 12 13 13 12 12 11 12 12 11 11 11 11 11 12 12 12 12 12 12 13 13 14 14 13 13 13 12 12 12 12 12 12 12 12 12 11 11 10 9 10 10 10 9 10 9 4 5 4 5 4 3 5 5 4 6 11 9 9 10 10 9 10 11 11 10 10 9
11 9 8 6 6 6 6 9 10 10 10 9 9 8 10 11 10 12 11 11 12 13 11 11 10 10 10 11 11 11 11 12 10 11 11 11 12 13 13 13 13 12 12 12 12 11 11 11 11 11 11 11 10 10 9 9 9 9 10 8 9 10 9 6 5 5 4 4 3 4 4 4 11 10 8 8 8 9 8 8 9 8 7 8 8
10 9 8 6 5 5 5 5 7 10 10 10 9 9 11 11 10 10 9 9 10 10 11 10 14 14 13 12 11 11 11 12 12 12 9 11 12 10 10 11 11 12 12 12 11 11 10 10 10 10 10 9 9 8 8 8 8 7 7 6 7 8 9 8 4 5 5 3 3 3 4 3 7 8 6 7 7 8 7 6 6 6 7 7 7
9 9 8 7 5 4 5 4 6 6 6 8 9 10 10 10 10 8 8 8 9 11 9 12 12 11 11 10 10 10 10 10 9 10 9 8 9 10 11 12 12 11 11 11 10 10 9 10 9 9 9 9 8 7 5 5 6 6 6 7 6 6 7 6 3 3 4 4 4 3 3 5 8 8 8 8 8 6 7 8 9 9 8 9 10
7 9 8 8 7 5 5 4 4 4 6 5 5 8 11 10 9 9 9 9 10 11 12 11 12 10 10 10 9 9 9 10 10 10 9 8 10 10 10 10 11 10 10 10 9 9 9 8 8 8 8 8 7 5 3 2 2 4 5 5 6 6 6 4 3 5 3 3 3 3 3 7 6 5 6 7 6 7 7 8 8 7 8 8 7
5 7 8 7 8 8 6 5 4 4 4 5 5 5 9 11 10 10 10 10 11 12 12 11 11 11 10 10 10 7 7 7 10 8 9 8 9 7 8 9 10 10 9 9 8 8 8 7 7 7 6 6 4 4 2 1 1 2 4 5 5 5 2 3 2 4 3 2 2 2 4 6 7 8 8 7 7 6 7 8 8 8 8 8 7
4 6 7 7 8 8 8 7 6 6 5 5 5 5 7 10 9 10 11 11 11 12 11 11 10 10 9 9 8 6 4 4 6 5 7 5 8 9 8 8 8 9 9 8 8 7 7 6 6 5 5 4 2 1 2 3 2 1 3 4 5 4 2 2 4 4 3 3 1 2 4 5 6 7 8 8 8 9 9 9 8 9 9 8 8
5 6 7 7 8 7 8 8 7 8 6 6 5 5 5 7 5 5 5 7 9 9 8 6 7 5 9 7 5 5 5 4 4 6 5 5 5 8 8 8 7 8 8 8 7 6 6 5 4 4 4 3 1 0 3 5 7 3 4 4 4 4 2 3 3 3 3 2 2 1 4 4 5 6 6 7 7 8 8 9 9 10 9 9 9
6 6 6 7 8 7 8 8 8 8 7 6 6 5 6 5 5 5 5 6 6 6 6 6 5 5 5 5 5 5 5 4 5 5 4 6 5 7 8 8 7 7 8 8 6 5 4 3 3 2 3 3 1 1 2 4 4 8 5 4 4 3 2 3 4 4 3 3 2 3 2 3 4 5 5 5 6 6 7 8 8 9 8 8 9
7 6 7 6 8 8 8 9 9 9 8 7 6 6 6 6 6 5 6 5 5 5 5 5 5 5 5 5 5 4 5 5 6 10 8 4 4 6 6 7 7 7 8 4 4 3 3 3 3 2 2 1 2 3 3 5 3 5 2 4 4 3 1 3 5 4 4 3 3 3 2 3 4 4 5 5 6 6 7 7 8 8 7 8 8
7 5 6 7 8 8 8 8 8 9 8 8 8 7 6 6 6 6 6 6 5 5 6 6 5 6 5 5 3 3 4 5 5 5 5 4 3 3 3 3 3 3 4 3 3 2 1 2 1 2 3 2 3 4 4 4 3 3 4 2 3 1 1 1 3 5 3 2 3 4 2 2 4 4 4 4 5 6 6 7 7 7 7 8 9
7 7 8 7 7 7 7 7 7 7 9 8 8 8 8 6 6 6 6 6 6 6 6 6 6 6 6 6 5 5 5 6 5 5 5 5 5 4 4 4 3 4 3 3 3 3 3 3 4 3 4 3 4 4 6 3 4 2 0 0 1 1 1 0 1 3 4 3 3 4 3 2 3 4 4 4 4 5 5 4 6 8 8 9 10
9 8 7 6 7 8 7 6 7 7 9 9 8 8 7 7 7 7 7 6 6 6 6 6 6 6 6 6 6 5 6 6 6 6 6 5 5 5 5 5 5 5 4 4 4 4 4 5 4 5 4 3 4 3 2 2 1 1 1 0 0 2 1 1 1 1 3 4 4 4 4 5 4 4 3 4 4 5 6 6 7 8 9 9 11
7 8 9 8 8 11 10 7 7 8 8 9 9 8 8 7 8 8 7 8 8 7 6 6 6 7 6 6 6 6 7 6 6 6 6 5 6 6 5 5 5 5 5 5 5 5 5 5 4 4 3 4 4 3 3 3 3 1 1 1 0 1 2 0 2 1 3 4 3 4 5 3 4 5 4 4 5 7 7 7 7 7 9 10 9
10 10 10 9 9 10 11 10 8 8 7 9 8 8 8 7 8 8 8 8 8 7 7 6 6 7 6 6 5 6 6 6 7 6 6 6 6 6 6 6 5 6 5 5 5 6 6 5 5 5 4 3 4 3 3 3 3 3 3 3 3 1 1 1 3 1 3 5 5 4 5 5 6 5 5 6 8 8 7 6 6 6 8 8 8
10 10 10 10 9 9 11 11 11 9 8 7 7 7 8 7 8 8 8 8 8 7 6 6 6 6 6 6 6 7 6 7 6 6 7 7 7 6 6 6 6 6 6 6 6 6 6 4 5 4 4 3 1 5 2 3 2 3 3 3 3 3 2 2 3 2 3 5 5 5 6 6 6 7 8 8 8 7 6 6 5 5 7 8 7
9 10 10 9 9 9 11 10 10 10 7 8 7 8 8 8 7 7 7 7 7 7 7 7 7 7 7 7 6 6 7 6 7 7 6 7 7 6 7 7 7 7 7 6 6 6 6 6 6 5 3 4 5 2 2 2 4 3 3 3 5 3 3 3 2 1 4 6 5 4 4 8 8 7 8 8 8 7 7 6 6 6 8 10 14
11 11 10 8 10 12 12 10 11 10 10 9 7 8 9 9 7 7 7 7 6 7 7 7 7 7 8 8 7 6 6 6 8 7 7 6 6 6 6 5 6 6 6 6 6 6 5 4 4 4 4 2 1 1 1 2 3 4 2 4 4 4 3 4 3 3 4 6 5 4 4 5 8 7 6 8 8 8 7 7 6 7 11 12 11
9 11 11 10 12 12 11 11 10 9 11 11 9 8 8 9 7 7 7 8 8 7 7 7 7 7 8 9 8 7 6 7 7 8 7 7 6 6 6 6 6 6 6 5 6 5 4 4 4 4 3 1 0 3 2 1 3 5 3 4 4 4 4 4 4 3 3 5 6 5 4 4 4 7 7 6 7 8 8 8 7 7 10 12 12
9 8 10 12 11 9 9 9 10 11 12 11 9 6 7 8 7 6 7 8 8 7 7 6 6 6 7 8 9 8 7 6 7 7 7 7 7 7 7 7 6 6 6 6 6 6 6 5 5 3 4 3 3 3 3 5 5 4 5 4 5 5 4 4 3 5 3 5 6 6 5 5 5 4 4 6 6 7 9 8 8 11 12 12 11
7 9 12 12 13 11 10 9 11 12 11 11 11 8 7 8 8 7 7 8 8 8 8 7 6 6 6 7 8 8 8 7 6 7 7 7 7 7 7 7 7 6 7 6 7 6 6 6 5 5 4 3 4 5 4 6 6 5 4 4 6 3 3 4 1 3 4 5 6 6 5 5 5 5 5 4 5 7 6 7 10 12 12 11 11
11 10 11 11 12 12 12 11 11 12 12 12 11 10 8 8 8 8 7 7 7 8 9 8 7 6 6 7 8 8 9 9 7 6 7 7 8 8 8 7 7 6 7 6 6 7 6 6 5 6 5 5 5 6 4 5 5 5 4 3 4 3 3 2 2 3 4 5 6 6 6 6 5 5 5 4 4 5 7 5 10 11 11 11 11
12 9 11 12 12 12 13 13 13 13 12 11 10 8 7 7 8 8 9 7 8 8 8 8 7 7 6 6 7 8 8 9 9 7 7 7 7 7 7 8 7 6 6 7 7 7 6 6 6 6 6 6 6 5 4 3 4 4 4 4 4 4 4 3 4 4 5 5 5 6 6 6 6 6 5 5 4 4 6 9 10 11 11 11 12
12 11 11 14 14 12 12 13 12 12 12 11 10 9 8 6 6 7 7 8 8 7 7 7 8 7 7 7 7 8 8 8 9 8 7 7 7 7 7 7 7 6 6 7 7 6 6 6 6 6 6 6 6 5 5 4 3 4 3 5 4 4 4 2 4 4 6 5 5 5 6 6 7 6 5 4 5 5 4 8 11 11 10 10 11
11 13 11 11 11 11 10 11 11 11 11 10 8 7 7 6 5 6 7 7 7 7 7 7 7 7 8 8 9 8 8 8 8 8 8 7 7 7 6 6 6 7 6 7 7 6 6 5 7 6 6 7 7 6 6 4 3 2 3 4 3 4 3 4 6 4 5 6 6 5 4 6 6 7 6 5 5 5 5 5 5 4 6 10 11
11 12 12 11 12 11 10 10 11 11 9 9 8 7 7 8 8 5 7 8 7 7 7 8 8 8 8 9 9 9 8 9 9 9 9 8 8 8 7 7 7 7 8 8 7 7 8 8 7 7 6 5 5 5 4 4 2 1 2 3 3 2 4 4 4 4 5 6 6 6 6 5 6 7 7 6 5 5 6 5 5 5 4 7 11
12 13 13 12 13 14 12 13 11 11 10 10 10 10 9 7 7 9 10 9 9 9 9 9 9 9 8 9 9 9 9 10 10 9 9 9 8 8 9 7 8 8 9 10 10 10 9 9 8 7 8 6 6 5 5 5 3 1 2 3 3 1 2 4 4 4 5 6 6 6 6 6 5 6 7 7 6 5 5 5 5 5 5 4 6
13 14 15 15 13 12 14 13 11 11 12 12 11 11 11 11 11 11 9 9 9 10 10 9 10 9 9 9 9 9 10 11 10 10 11 10 9 9 9 9 9 9 10 10 10 9 9 8 7 6 5 8 6 7 6 6 1 5 2 2 2 1 1 1 3 5 5 4 5 6 6 6 6 5 5 7 6 6 5 5 5 5 4 4 4
14 15 15 13 13 13 13 12 12 13 12 13 11 12 10 9 9 5 7 5 4 6 6 7 7 8 9 9 9 9 10 10 10 11 11 11 11 10 10 10 10 10 10 10 10 11 10 11 10 9 6 5 5 5 7 7 6 3 2 2 2 2 3 2 1 3 5 5 5 6 6 6 7 6 6 6 6 6 5 5 5 5 4 4 5
11 11 12 15 13 13 12 13 13 13 12 12 12 10 9 8 7 5 5 5 4 3 4 4 6 7 9 9 8 9 10 10 10 11 10 10 11 11 10 10 11 10 11 11 11 12 10 10 10 10 8 6 5 7 7 8 6 7 2 5 4 3 3 7 6 4 4 5 7 6 6 6 7 5 6 7 6 6 6 6 6 6 5 5 4
13 14 14 14 12 16 15 14 13 13 12 12 13 9 8 7 7 4 3 4 3 5 6 8 8 9 9 9 11 8 8 9 10 11 10 11 10 10 10 10 10 10 10 11 11 13 12 11 12 10 11 10 9 6 6 8 9 9 7 4 0 2 6 3 5 5 2 3 4 6 5 6 7 7 6 6 5 6 6 5 6 5 5 5 4
13 14 14 15 14 13 13 13 11 11 13 13 13 10 10 11 9 10 10 10 11 11 14 16 13 12 14 10 6 9 9 9 8 9 10 9 10 10 10 10 10 10 10 11 10 10 11 11 11 11 11 10 10 8 6 6 9 10 9 6 7 5 5 4 6 5 1 1 4 3 6 5 6 7 6 6 6 5 6 6 5 6 5 5 4
15 13 12 12 13 12 13 14 13 11 12 11 13 11 11 11 14 14 13 13 13 13 12 8 9 9 7 9 9 8 9 10 9 8 8 8 8 8 9 10 10 10 10 10 10 11 10 11 9 10 11 10 8 9 10 8 4 6 7 6 3 2 5 7 6 4 4 1 2 2 3 3 5 6 6 7 7 6 4 5 5 5 5 5 5
15 11 11 11 13 14 13 14 12 11 10 11 13 14 13 13 13 13 12 13 14 13 10 9 7 7 9 10 8 9 9 10 11 11 11 10 9 9 10 10 10 10 9 10 11 9 9 9 10 11 10 9 11 11 9 8 11 8 7 8 5 3 4 2 2 8 6 7 4 1 0 3 4 5 7 7 7 7 7 5 5 5 5 5 5
12 12 13 13 13 12 12 11 12 11 10 12 13 14 14 13 13 11 12 12 12 9 6 7 8 7 9 9 10 10 10 12 13 12 12 13 12 11 10 11 11 11 9 9 9 9 11 11 11 10 11 10 10 10 9 10 10 9 7 7 5 6 4 4 3 2 4 5 5 8 5 0 1 3 5 6 6 6 7 6 6 6 5 5 5
11 10 10 10 10 9 11 12 13 11 10 11 12 14 14 11 12 13 15 13 10 8 6 8 9 8 11 10 10 10 11 11 12 13 13 13 13 13 12 12 13 12 11 11 11 11 11 12 12 12 11 12 9 10 11 9 10 9 10 9 9 5 4 4 4 4 1 3 6 9 7 9 8 7 5 6 7 6 6 6 6 5 5 5 5
8 8 8 8 8 9 11 12 14 11 10 12 12 14 13 12 14 14 15 14 11 10 9 10 8 8 11 11 11 11 10 12 11 12 13 13 13 13 13 13 11 11 11 11 12 12 11 11 11 12 12 13 10 11 10 9 9 9 10 9 10 11 11 10 9 6 6 3 2 5 5 8 10 7 7 6 7 6 7 6 7 6 6 5 5
Wind_Direction
187 143 128 128 130 133 124 121 118 110 107 106 103 99 92 90 90 93 100 107 99 87 86 92 91 89 93 95 89 83 82 85 92 95 95 92 91 91 89 88 88 85 84 85 82 81 79 75 73 71 70 69 67 66 66 66 66 66 64 63 64 66 69 70 70 67 65 67 67 66 62 64 66 67 66 63 61 75 77 68 64 58 58 53 54
154 147 125 133 133 130 126 122 115 111 109 109 105 100 99 94 90 89 93 93 92 95 98 100 104 104 89 78 79 86 91 89 86 85 84 88 91 84 83 91 92 90 85 82 80 78 78 76 74 71 70 69 67 67 68 68 66 61 55 50 49 53 64 75 77 73 67 64 59 60 67 66 70 70 65 58 57 66 67 61 55 53 57 58 55
131 127 131 129 129 129 126 121 114 112 113 111 107 106 103 99 102 103 96 95 95 91 94 103 104 94 91 90 94 95 94 92 92 91 91 90 88 90 88 84 85 85 85 83 82 80 78 75 73 71 69 69 68 67 68 67 62 56 50 44 42 43 55 81 82 76 68 59 52 46 37 65 70 66 67 61 58 60 63 59 57 56 59 58 59
127 129 127 129 128 131 131 124 114 114 114 112 113 113 108 104 106 107 104 99 96 96 93 89 88 92 100 102 99 95 94 95 95 98 98 93 89 91 94 93 93 92 87 85 81 78 76 75 73 71 70 69 68 66 66 63 58 52 48 45 44 48 67 83 82 78 73 66 57 46 43 19 51 66 66 65 64 63 63 63 59 56 55 58 60
126 135 132 132 135 137 130 121 121 118 115 112 114 114 106 110 109 102 104 104 102 103 105 102 99 96 94 99 103 103 103 99 97 98 98 92 92 94 97 100 92 88 87 85 81 78 76 75 74 71 71 68 65 64 63 59 55 50 44 42 44 52 67 81 83 80 76 72 63 58 49 35 16 67 67 69 67 60 67 62 61 60 58 58 58
134 136 136 133 131 131 125 124 126 123 117 114 112 111 110 110 109 110 110 101 98 99 93 95 95 95 102 103 97 93 95 95 95 93 88 91 91 88 88 90 90 90 87 85 81 78 76 75 74 72 70 68 65 64 62 59 55 49 45 43 47 60 68 70 78 77 75 72 65 60 48 36 26 50 65 60 62 51 55 55 60 57 55 49 40
134 133 134 128 122 127 130 129 125 120 118 119 118 111 108 103 102 105 96 100 104 104 105 107 103 104 114 111 103 99 96 99 94 98 94 95 94 93 89 87 86 86 84 84 81 78 76 75 73 72 70 68 66 64 62 60 56 50 47 49 53 65 72 70 68 68 62 56 57 52 46 45 36 29 65 62 60 54 52 51 53 52 56 54 45
128 130 130 124 122 129 127 126 124 123 122 117 116 119 121 118 110 107 108 110 107 112 115 115 113 111 109 104 104 103 105 96 95 95 92 88 94 97 96 90 86 85 87 87 85 80 77 76 75 74 72 70 68 65 63 61 55 50 48 49 56 69 70 69 67 65 60 54 46 47 52 47 44 35 64 64 62 59 55 53 51 51 50 56 53
130 131 128 122 123 126 125 126 127 125 118 113 118 122 119 116 114 107 106 113 117 119 111 105 104 112 112 112 107 97 95 95 94 99 101 99 95 90 90 90 89 88 89 87 86 84 80 78 77 75 73 70 68 65 64 61 54 50 49 48 51 64 74 73 69 65 59 56 49 48 52 53 55 62 69 62 61 62 62 62 51 53 54 55 54
131 131 128 127 128 126 129 130 132 132 123 120 123 127 118 117 112 113 116 113 113 101 106 111 114 112 110 109 107 107 104 99 95 96 100 104 102 99 93 91 94 96 95 93 90 87 83 81 78 76 73 71 67 65 64 59 54 50 49 46 45 53 71 79 79 74 70 65 55 48 57 62 51 61 64 63 66 70 59 62 62 60 58 57 56
131 131 129 130 134 136 133 132 133 135 128 125 128 129 122 118 118 119 120 122 115 105 109 113 112 112 114 110 103 103 103 103 101 100 103 100 99 98 95 95 92 92 93 92 88 84 84 80 77 75 73 70 67 66 63 58 53 50 48 44 40 48 74 85 85 84 82 77 62 39 25 37 53 73 65 62 71 66 60 64 62 59 58 61 60
130 133 131 135 139 139 134 131 134 134 133 134 134 134 132 128 127 128 125 124 121 116 116 111 111 114 112 110 109 107 105 102 104 105 106 105 102 98 98 96 96 96 94 91 89 87 83 81 78 75 73 69 66 63 61 57 53 50 45 37 32 36 57 86 89 90 86 72 65 41 23 14 50 61 65 64 58 60 56 58 59 60 58 56 55
128 132 133 132 136 139 135 134 138 142 142 138 138 137 138 139 136 135 128 126 127 121 119 116 115 119 115 115 117 111 111 109 104 107 106 105 103 103 101 101 98 97 96 93 90 88 85 81 78 75 72 68 65 63 60 57 56 53 46 40 35 35 50 68 78 88 86 82 67 44 23 9 12 69 68 63 62 65 62 58 56 54 55 48 50
128 132 133 136 143 139 134 132 136 138 136 141 141 142 145 141 143 134 128 130 128 124 122 123 120 120 120 120 124 121 110 110 114 109 107 106 106 107 102 99 99 99 94 92 91 90 87 85 82 78 73 68 64 61 58 56 54 51 48 46 42 38 46 69 80 79 81 76 69 47 30 11 327 73 68 64 62 59 58 60 58 55 54 50 46
130 133 136 139 140 141 133 130 133 126 123 126 127 140 154 145 142 131 134 136 131 131 129 130 129 122 113 109 109 113 113 112 115 112 110 107 105 103 103 100 99 97 96 93 90 87 88 85 82 78 73 69 64 59 54 51 47 42 40 35 27 28 29 50 65 80 78 73 65 55 27 358 13 54 49 64 61 63 58 56 55 55 50 48 46
130 132 129 133 140 141 130 128 130 132 127 126 126 133 140 143 135 131 130 131 133 132 125 118 118 119 118 117 103 90 81 74 81 109 101 109 109 105 103 104 103 101 99 98 95 94 91 88 84 80 77 73 67 58 50 44 38 34 30 24 21 16 13 28 64 76 67 52 48 58 30 1 33 37 30 47 63 65 60 53 53 52 53 46 44
129 130 129 135 138 137 130 126 133 135 133 128 127 129 135 142 139 137 136 134 132 125 129 133 106 102 99 96 94 88 84 81 87 97 100 113 114 115 112 111 109 106 102 99 97 94 92 91 89 86 82 79 71 59 47 37 28 22 17 17 15 9 2 25 49 100 84 62 55 36 33 2 44 44 43 46 63 65 63 60 53 43 36 33 31
134 135 139 142 140 140 133 131 134 135 136 127 125 129 132 139 140 136 133 129 133 129 113 105 104 99 97 93 93 91 88 87 81 81 78 87 103 100 104 111 112 107 105 99 100 98 95 93 94 92 89 84 80 69 45 30 18 9 2 3 3 360 351 24 81 94 87 84 64 36 21 16 42 43 40 48 38 51 57 33 33 22 15 13 7
142 143 148 149 153 147 146 147 143 140 141 132 131 137 138 139 139 141 130 123 126 117 118 116 112 106 104 102 97 97 95 90 88 85 83 99 110 114 113 115 117 114 110 109 103 103 99 98 98 100 98 95 96 98 75 35 354 0 349 342 345 349 351 38 114 105 94 85 90 59 21 17 21 50 61 49 42 28 39 41 28 17 10 10 5
146 150 157 162 159 160 158 155 152 149 147 139 137 140 141 140 144 142 130 126 128 125 124 122 119 118 117 115 111 106 99 94 95 89 89 93 108 110 116 123 123 123 121 118 117 113 112 110 106 109 109 107 112 121 162 200 303 349 346 332 332 343 358 37 103 104 107 105 90 99 55 34 10 360 18 24 37 28 24 33 21 19 18 14 6
147 173 161 171 167 164 162 159 164 161 154 145 141 141 145 140 141 139 135 134 135 133 129 125 123 125 126 127 122 116 115 109 98 101 94 93 103 104 107 115 127 130 130 127 125 122 120 120 124 120 120 118 118 204 285 260 271 281 338 315 331 328 312 105 144 124 120 114 102 63 69 42 11 7 7 9 17 17 16 12 16 17 17 24 20
176 183 174 173 167 169 168 166 166 169 158 151 149 144 149 139 137 136 132 137 137 134 133 136 137 140 141 139 139 138 132 122 115 107 106 104 88 109 106 107 112 122 133 134 131 129 128 133 141 149 135 148 188 344 303 319 302 274 248 302 312 295 303 74 120 118 116 122 113 86 69 45 24 9 12 8 9 16 10 3 5 14 19 27 29
196 182 182 178 162 173 172 169 171 176 160 157 154 154 153 147 147 145 141 144 149 144 146 143 148 153 161 164 158 155 150 143 133 127 118 108 111 115 111 108 114 121 128 133 132 137 141 154 173 181 165 109 301 304 300 285 302 306 312 293 290 289 343 95 112 121 134 160 140 134 96 55 19 8 358 360 13 13 5 1 9 15 27 35 40
189 180 184 183 163 171 176 174 175 176 162 161 156 158 160 155 155 156 149 153 159 156 153 155 159 165 175 182 169 155 157 151 149 133 121 114 100 96 104 108 117 120 124 122 133 140 164 182 214 254 301 155 239 260 269 257 256 261 253 256 259 268 237 123 123 142 157 166 164 125 82 43 18 9 349 357 5 12 6 7 1 19 37 44 49
185 173 189 182 183 166 178 179 171 171 163 160 159 166 167 161 164 163 159 160 170 167 165 166 169 177 180 190 172 145 162 149 149 143 137 138 135 143 145 151 141 138 141 137 149 168 177 229 269 265 248 217 196 238 235 260 241 240 228 243 231 145 60 147 132 142 148 172 143 130 106 40 19 24 1 2 5 13 17 9 5 33 55 59 57
182 181 191 180 183 181 168 183 172 162 164 163 166 172 170 170 171 173 166 172 173 176 176 177 181 186 181 194 172 154 162 156 157 155 149 156 158 168 175 172 167 177 178 179 185 178 209 219 214 227 240 216 229 218 193 191 163 208 86 269 53 31 32 139 79 113 161 141 154 139 110 54 48 40 24 20 17 28 33 12 29 53 60 64 62
185 189 181 179 181 183 183 173 177 161 164 165 167 172 183 177 174 175 168 181 182 181 185 189 190 194 184 188 172 165 170 165 163 160 162 165 176 181 186 182 184 193 194 186 202 205 210 212 217 230 225 231 231 231 243 238 222 161 194 47 325 1 298 10 122 142 133 148 162 131 84 70 57 55 39 43 45 50 57 50 51 51 61 67 70
177 183 187 183 183 183 185 177 176 169 166 170 169 176 188 175 181 175 179 180 180 193 189 192 192 201 187 188 174 163 171 168 168 166 174 168 187 195 187 187 192 210 200 187 195 217 217 209 220 234 243 218 214 228 235 234 249 215 199 206 264 296 321 265 198 211 122 145 124 112 99 85 76 71 78 70 61 67 59 47 40 49 61 63 73
183 185 186 185 188 179 182 184 180 179 173 174 172 179 185 176 177 177 184 179 182 191 190 191 190 202 195 182 176 162 184 168 169 180 171 178 194 198 183 195 193 210 195 204 190 205 211 201 211 220 219 223 240 233 224 245 246 242 199 203 194 238 290 256 221 215 117 134 130 128 121 106 89 90 74 70 67 61 55 55 56 61 72 80 76
190 185 181 189 186 176 185 184 186 183 180 175 181 176 186 176 178 178 182 173 183 188 183 191 195 189 202 181 185 170 180 174 176 180 172 187 195 201 187 195 196 201 192 198 204 193 205 201 212 200 208 228 259 256 231 234 245 220 210 189 200 213 209 210 219 189 130 122 131 134 126 113 98 83 81 80 71 63 59 61 68 81 83 89 102
183 188 186 185 184 177 188 184 186 183 180 184 184 185 187 186 181 180 178 175 178 190 186 190 195 193 200 186 178 181 176 177 173 182 183 180 191 188 190 182 191 187 189 195 190 194 201 191 199 196 189 195 199 192 189 271 274 279 218 200 211 216 223 222 220 184 123 138 134 137 126 119 113 100 98 87 77 71 70 71 82 99 103 105 97
186 191 188 179 181 186 187 186 184 183 185 190 186 189 191 192 184 179 182 185 172 188 192 188 193 193 194 196 184 182 181 180 173 182 180 187 194 193 196 174 198 191 186 188 190 200 189 201 186 176 185 164 216 281 199 193 250 258 228 207 219 210 221 212 193 180 177 128 142 137 131 123 103 92 83 88 85 82 81 84 93 112 112 104 99
194 185 184 176 184 185 185 187 181 184 189 193 191 194 192 191 184 185 184 183 187 189 194 193 191 188 189 193 195 186 184 183 188 182 183 185 191 192 196 198 201 195 191 187 189 202 169 160 187 174 150 137 19 289 283 244 252 262 247 228 215 215 219 210 207 176 177 129 140 141 135 124 108 92 83 81 88 91 89 91 98 99 91 96 99
186 184 175 182 182 183 183 182 185 184 192 195 195 189 191 190 189 184 186 184 190 192 201 201 195 191 185 192 193 196 192 188 183 195 182 183 188 190 192 201 205 200 186 179 177 187 192 170 192 174 203 192 224 254 266 268 260 260 261 236 207 210 204 214 195 196 155 133 142 139 139 131 115 109 91 82 87 95 100 101 102 98 98 96 96
176 189 186 180 179 181 179 186 184 187 189 194 197 195 189 187 189 188 186 187 189 196 201 202 200 196 185 191 194 195 201 198 184 189 191 184 188 193 194 203 200 195 184 189 177 185 175 190 176 181 212 213 220 235 224 233 242 241 232 209 200 209 184 213 191 199 142 142 136 142 146 138 130 118 108 96 76 79 90 112 109 108 100 92 88
192 189 190 179 180 181 181 183 182 188 190 193 195 197 191 190 191 193 187 188 190 197 201 203 200 196 192 190 195 195 199 205 192 188 190 190 189 192 201 199 200 186 188 187 182 187 190 192 196 181 187 224 217 242 224 228 232 239 240 217 212 195 191 180 158 169 151 141 133 144 150 147 138 131 125 111 102 83 67 71 103 96 85 82 80
195 183 186 187 185 182 183 183 184 188 189 190 191 197 193 191 193 191 191 186 192 200 203 203 204 201 197 191 192 193 198 202 202 191 193 192 190 193 200 199 196 185 177 186 187 191 186 194 207 201 186 210 210 227 243 228 233 228 234 221 214 200 205 200 171 161 139 143 142 140 143 150 147 139 127 122 112 101 79 69 61 64 66 77 78
196 190 184 185 188 183 187 188 185 186 186 187 187 190 195 188 191 193 190 192 197 199 201 200 206 207 202 200 190 192 195 197 201 198 199 200 194 191 195 197 190 186 178 183 193 190 190 186 207 214 201 200 208 208 233 236 228 238 228 214 224 204 221 160 185 157 145 149 153 150 151 141 142 143 132 132 131 118 106 85 75 67 64 73 77
192 192 184 187 185 186 185 188 183 183 186 185 181 179 186 191 189 190 196 200 202 202 196 204 207 207 205 203 198 196 196 195 197 198 200 200 202 201 196 201 189 186 182 187 193 193 193 196 198 214 211 202 196 204 209 210 213 207 222 227 207 217 211 179 168 157 159 163 164 161 136 136 130 136 140 143 140 133 119 108 98 88 70 69 73
189 189 189 182 186 185 187 186 187 179 178 183 179 177 179 189 193 196 205 206 204 201 204 205 205 208 205 198 198 199 197 198 197 198 200 199 201 202 202 200 196 186 189 189 195 193 198 203 211 201 206 222 218 202 195 172 186 196 259 288 273 209 185 182 171 174 165 164 162 150 148 145 127 133 144 150 149 144 137 138 122 106 88 72 70
188 189 191 191 188 188 182 191 188 179 176 181 186 186 186 187 194 197 204 200 201 198 203 205 206 208 202 199 197 198 197 198 201 197 200 200 202 201 201 201 197 194 194 198 194 197 199 199 203 198 194 201 222 210 205 162 163 284 312 298 316 325 245 185 174 170 170 165 152 149 149 136 136 138 148 151 154 155 151 144 132 116 103 90 68
197 190 193 195 191 185 190 192 185 188 189 185 186 192 196 196 193 200 195 195 194 198 204 205 206 205 204 203 201 199 196 198 199 199 202 199 200 201 202 201 194 199 201 199 198 196 198 202 191 207 208 188 207 198 198 133 161 197 203 289 331 335 300 255 171 180 177 175 154 146 157 149 152 154 140 137 153 161 160 151 136 125 118 106 92
192 193 195 190 192 192 195 189 190 190 194 191 187 197 198 200 197 193 189 200 219 209 211 208 203 204 207 207 203 199 198 202 197 200 202 204 204 202 205 203 199 195 197 202 198 200 199 201 194 195 203 216 203 203 185 181 184 153 127 97 259 177 299 289 305 242 193 176 155 154 161 157 162 162 149 131 141 152 157 153 147 135 129 116 105
188 193 192 194 195 198 194 191 193 193 193 195 197 196 193 194 201 189 193 192 199 211 217 216 213 211 218 210 209 200 201 201 198 200 204 206 205 207 206 207 206 197 198 200 201 203 199 201 198 199 182 197 202 218 194 188 156 139 192 193 207 150 238 235 199 235 204 172 162 169 162 164 157 151 138 144 152 145 147 149 146 142 134 122 118
194 195 194 194 196 199 197 191 191 194 195 192 192 180 168 178 185 183 173 208 238 216 215 226 213 213 219 214 215 201 199 201 199 201 203 207 208 210 209 211 210 205 203 205 204 205 201 199 195 195 194 196 204 202 212 193 187 187 153 122 108 200 216 207 157 238 172 169 195 169 175 154 153 158 154 155 151 150 144 134 138 140 140 135 121
200 201 198 198 197 198 195 194 192 194 197 193 184 177 180 179 176 186 198 204 213 210 213 215 207 208 213 214 206 202 205 205 201 203 207 209 212 213 213 213 215 214 210 211 210 207 206 202 199 197 202 202 194 195 205 220 200 195 192 186 162 173 184 220 149 220 164 268 177 186 178 169 150 156 157 153 156 158 149 141 139 140 139 131 129
205 201 199 200 200 198 196 196 196 196 195 191 182 182 185 189 191 196 200 203 210 219 221 220 213 218 214 211 212 206 209 209 212 208 209 212 219 219 218 219 219 219 216 216 215 211 208 207 199 202 203 196 185 200 200 198 209 234 211 214 149 149 140 132 201 96 188 222 152 175 199 176 162 153 162 166 161 153 163 145 144 139 139 138 140
203 195 198 199 200 200 196 198 200 198 194 188 186 189 192 195 197 202 205 210 212 219 205 214 208 202 208 214 206 212 210 213 215 214 213 213 215 222 220 221 222 223 217 220 219 215 212 211 204 205 201 196 196 202 200 190 189 211 202 214 212 189 179 172 163 173 166 177 207 263 330 165 172 178 170 167 167 164 158 157 148 146 141 147 151
202 195 197 199 201 200 196 197 201 200 195 187 190 195 198 197 200 203 211 220 219 221 192 199 202 195 208 206 206 210 210 213 214 214 214 216 216 221 221 221 219 220 215 222 223 216 212 208 204 204 204 204 202 204 195 199 199 202 180 219 204 207 197 207 181 156 139 165 201 185 184 70 219 234 197 176 173 164 162 162 159 154 150 155 158
202 203 205 199 198 194 196 196 204 200 195 190 192 198 200 197 201 207 213 217 212 214 193 205 204 195 212 208 206 207 209 212 213 213 213 213 215 217 223 225 221 218 213 216 217 217 215 213 208 206 205 206 205 203 205 200 203 201 194 191 196 197 204 226 209 194 211 190 173 193 184 176 190 219 192 184 176 173 164 158 159 162 161 161 157
201 191 199 199 196 193 196 199 206 199 192 196 193 199 198 199 208 209 213 217 207 205 208 217 207 203 213 211 207 210 207 212 209 215 214 213 213 214 218 226 228 222 216 214 216 216 213 211 210 209 208 206 206 207 210 207 201 204 201 196 199 193 197 202 207 191 185 177 142 198 187 197 193 182 218 191 172 172 167 165 166 173 172 171 163